Regional Weather Roundup
Issued by NWS Albany, NY

Home | Current Version | Previous Version | Graphics & Text | Print | Product List | Glossary On
Versions: 1 2 3 4 5 6 7 8 9 10 11 12 13 14 15 16 17 18 19 20 21 22 23 24 25 26 27 28 29 30 31 32 33 34 35 36 37 38 39 40 41 42 43 44 45 46 47 48 49 50
616
ASUS41 KALY 100610
RWRALY

NEW YORK STATE HOURLY WEATHER ROUNDUP
NATIONAL WEATHER SERVICE ALBANY NY
100 AM EST WED FEB 10 2016

NOTE: "FAIR" INDICATES FEW OR NO CLOUDS BELOW 12,000 FEET WITH NO
SIGNIFICANT WEATHER AND/OR NO OBSTRUCTIONS TO VISIBILITY.

NYZ032-033-038>043-046>054-057>066-NYZ062>081-100700-
EAST


CITY           SKY/WX    TMP DP  RH WIND       PRES   REMARKS
ALBANY         PTCLDY    27  22  81 S3        29.55F
GLENS FALLS    LGT SNOW  25  22  88 CALM      29.55F FOG
POUGHKEEPSIE   CLOUDY    31  25  78 CALM      29.58S
NEWBURGH       CLOUDY    30  28  93 CALM      29.57
MONTGOMERY     CLOUDY    29  27  92 CALM      29.56S FOG
WHITE PLAINS   MOCLDY    28  23  81 CALM      29.57F
ISLIP          CLOUDY    26  22  84 CALM      29.58F
NEW YORK CITY  CLOUDY    33  25  72 E3        29.60S
CENTRAL PARK   CLOUDY    33  26  75 CALM      29.61F
$$

NYZ005>009-017-018-044>046-055-056-100700-
CENTRAL


CITY           SKY/WX    TMP DP  RH WIND       PRES   REMARKS
FULTON         CLOUDY    31  27  85 CALM      29.52F
SYRACUSE       CLOUDY    24  24 100 CALM      29.52F FOG
ROME           CLOUDY    27  25  92 CALM      29.54F
ELMIRA         CLOUDY    30  28  92 SW5       29.52F WCI  25
BINGHAMTON     FOG       27  25  92 CALM      29.48F VSB 1/2
MONTICELLO     CLOUDY    27  27 100 CALM      29.52S
$$

NYZ026>034-041>043-100700-
NORTH


CITY           SKY/WX    TMP DP  RH WIND       PRES   REMARKS
WATERTOWN      LGT SNOW  25  21  85 N3        29.52S FOG
FORT DRUM      NOT AVBL
MASSENA        LGT SNOW  20  16  84 N3        29.55S FOG
SARANAC LAKE   CLOUDY    21  18  88 CALM      29.42S
PLATTSBURGH    LGT SNOW  22  18  85 CALM      29.53F FOG
$$

NYZ001>004-010>016-019>021-100700-
WEST


CITY           SKY/WX    TMP DP  RH WIND       PRES   REMARKS
NIAGARA FALLS  LGT SNOW  30  26  85 SW15G26   29.48S FOG     WCI  19
BUFFALO        FLURRIES  31  26  82 SW22G33   29.49S WCI  18
DUNKIRK        LGT SNOW  29  26  89 W21G33    29.56S FOG     WCI  16
JAMESTOWN      CLOUDY    25  19  80 SW12      29.52S WCI  14
WELLSVILLE     MOCLDY    27  18  69 W15G24    29.49S WCI  15
ROCHESTER      CLOUDY    33  21  61 W16G25    29.51F WCI  23
PENN YAN       CLOUDY    33  23  66 SW6       29.50F WCI  28
$$

             KEY
       WCI = WIND CHILL INDEX
       VSB = VISIBILITY
       HX  = HEAT INDEX
$$




USA.gov is the U.S. government's official web portal to all federal, state and local government web resources and services.